Preview of NWS' New Version of Forecast
This preview is not operational and should not be used for support decisions.

Regional Weather Roundup (RWR)

Issued by National Weather Service (NWS)

                            
000
ASUS46 KPQR 200510
RWROR 

OREGON REGIONAL WEATHER ROUNDUP
NATIONAL WEATHER SERVICE PORTLAND OR
1000 PM PDT MON AUG 19 2019

NOTE: "FAIR" INDICATES FEW OR NO CLOUDS BELOW 12,000 FEET WITH
NO SIGNIFICANT WEATHER AND/OR OBSTRUCTIONS TO VISIBILITY.

ORZ001>013-200600-
NORTHWEST OREGON

  
CITY           SKY/WX    TMP DP  RH WIND       PRES   REMARKS
ASTORIA        CLEAR     59  54  83 CALM      29.95S                  
TILLAMOOK      CLEAR     59  54  82 CALM      29.97S                  
NEWPORT        CLEAR     55  52  88 CALM      30.00R                  
FLORENCE       FAIR      57  52  82 CALM      29.97R HAZE             
PORTLAND       PTCLDY    71  57  61 W6        29.92F                  
VANCOUVER WA   PTCLDY    70  56  61 NW3       29.92S                  
SCAPPOOSE      PTCLDY    66  56  70 W3        29.92R                  
HILLSBORO      PTCLDY    64  55  72 W7        29.93S                  
AURORA         CLEAR     70  54  56 NE5       29.93F                  
MCMINNVILLE    CLEAR     70  56  61 NW5       29.93R                  
SALEM          CLEAR     69  54  58 N3        29.92S                  
CORVALLIS      CLEAR     66  55  67 W9        29.93S                  
EUGENE         CLEAR     68  55  63 CALM      29.93R                  
CRESWELL       PTCLDY    64  57  77 CALM      29.92S                  
$$

ORZ021-028-200600-
SOUTHWEST OREGON

  
CITY           SKY/WX    TMP DP  RH WIND       PRES   REMARKS
NORTH BEND     CLEAR     60  57  89 CALM      30.00R                  
BROOKINGS      LGT RAIN  54  54 100 SE3       30.00S VSB 1            
ROSEBURG       CLEAR     74  57  55 NW5       29.93R                  
SEXTON SUMMIT  CLEAR     65  52  62 N5        30.05R                  
GRANTS PASS    FAIR      77  55  47 CALM      29.95R                  
MEDFORD        CLEAR     77  51  40 VRB3      29.91R                  
$$

ORZ014>016-041-200600-
COLUMBIA GORGE

  
CITY           SKY/WX    TMP DP  RH WIND       PRES   REMARKS
TROUTDALE      CLEAR     70  56  61 CALM      29.92S                  
HOOD RIVER     CLEAR     66  52  59 CALM      29.91R                  
THE DALLES     CLEAR     75  53  46 NW13      29.85R                  
$$

ORZ029>031-041-044-049-050-061>064-502-503-505>511-200600-
EASTERN OREGON

  
CITY           SKY/WX    TMP DP  RH WIND       PRES   REMARKS
MADRAS         PTCLDY    68  48  49 NW6       29.98S                  
REDMOND        PTCLDY    75  50  41 NW12      29.99R                  
BEND           PTCLDY    73  48  40 NW7       30.01R                  
PRINEVILLE     PTCLDY    70  45  40 W7        29.98R                  
KLAMATH FALLS  PTCLDY    66  50  56 SW9       30.04R                  
LAKEVIEW       CLEAR     54  37  52 SE10      30.10R                  
HERMISTON      CLEAR     70  51  51 S8        29.84R                  
PENDLETON      CLEAR     70  41  34 SE6       29.89S                  
JOHN DAY       CLEAR     74  36  24 W5        30.00S                  
MEACHAM        CLEAR     57  44  62 CALM      30.04R                  
LA GRANDE      CLEAR     67  47  48 W5        29.99R                  
BAKER CITY     PTCLDY    66  48  52 CALM      30.01R                  
BURNS          PTCLDY    70  35  27 CALM      30.00R                  
ROME             N/A     76  33  21 N3        29.98R                  
ONTARIO        CLEAR     74  52  46 CALM      29.87R                  
$$